Location: Lane
(33.5226°N, 79.8788°W)
Time: 19:15:46
(UTC+00:00)

Explorer 11/Cluster Stage 4 - Pass Details

Date: 09 October 2022
Orbit: 466 x 1247 km, 28.8° (Epoch: 01 December)

Event Time Altitude Azimuth Distance (km) Brightness Sun altitude
Rises 12:24:44 0° 218° (SW) 3,674 9.8 12.4°
Reaches altitude 10° 12:27:43 10° 205° (SSW) 2,848 9.4 13.0°
Maximum altitude 12:33:28 26° 152° (SSE) 2,077 9.6 14.2°
Drops below altitude 10° 12:39:48 10° 100° (E) 3,174 12.1 15.4°
Sets 12:43:18 0° 89° (E) 4,176 11.7 16.1°
